Regional Weather Roundup
Issued by NWS Green Bay, WI

Home | Current Version | Previous Version | Text Only | Print | Product List | Glossary On
Versions: 1 2 3 4 5 6 7 8 9 10 11 12 13 14 15 16 17 18 19 20 21 22 23 24 25 26 27 28 29 30 31 32 33 34 35 36 37 38 39 40 41 42 43 44 45 46 47 48 49 50
000
ASUS43 KGRB 010910
RWRGRB

NORTH-CENTRAL AND NORTHEAST WISCONSIN REGIONAL WEATHER ROUNDUP
NATIONAL WEATHER SERVICE GREEN BAY WI
400 AM CDT MON SEP 01 2014

WIZ005-009-010>012-018-019-011000-
NORTH CENTRAL WISCONSIN

CITY           SKY/WX    TMP DP  RH WIND       PRES   REMARKS
IRONWOOD       NOT AVBL
MANITOWISH WTR CLOUDY    64  64 100 SE6       29.61F
ARBOR VITAE    CLOUDY    67  65  91 S9        29.63F
EAGLE RIVER    CLOUDY    66  66 100 S6        29.64F
LAND O LAKES   CLOUDY    66  65  98 S7        29.65F
RHINELANDER    CLOUDY    67  65  93 S12G21    29.67F
PHILLIPS       RAIN      64  63  96 SW13G25   29.64R
ANTIGO         MOCLDY    66  65  98 S9        29.71S
TOMAHAWK       CLOUDY    65  63  91 SW5       29.68R
MERRILL        CLOUDY    68  64  85 SW8       29.68S
$$

WIZ013-073-011000-
NORTHEAST WISCONSIN

CITY           SKY/WX    TMP DP  RH WIND       PRES   REMARKS
IRON MOUNTAIN  CLOUDY    66  65  96 SE10      29.69F FOG
MARINETTE      MOCLDY    70  66  88 S12       29.71F
OCONTO         MOCLDY    69  69 100 S6        29.72F
$$

WIZ017-030-035>037-045-011000-
CENTRAL WISCONSIN

CITY           SKY/WX    TMP DP  RH WIND       PRES   REMARKS
MEDFORD        DRIZZLE   64  60  84 SW13G18   29.69R
WAUSAU         CLOUDY    70  59  68 SW9       29.68S
MOSINEE        CLOUDY    68  59  73 SW8       29.71R
MARSHFIELD     LGT RAIN  67  59  75 SW9       29.69F
WISC RAPIDS    CLOUDY    72  57  59 SW12      29.70F
STEVENS POINT  CLOUDY    69  57  67 S8        29.70S
WAUPACA        CLOUDY    73  69  87 S5        29.72F
SHAWANO        MOCLDY    71  68  90 S5        29.71F
CLINTONVILLE   CLOUDY    72  68  88 S7        29.70F
$$

WIZ038-039-048-051-011000-
FOX VALLEY

CITY           SKY/WX    TMP DP  RH WIND       PRES   REMARKS
NWS GREEN BAY  MOCLDY    70  68  93 S7        29.73F
APPLETON       MOCLDY    72  70  94 S12       29.74F
OSHKOSH        MOCLDY    72  69  90 S12       29.74F
FOND DU LAC    MOCLDY    72  68  87 S12       29.76F
$$

WIZ022-050-052-011000-
EAST CENTRAL WISCONSIN

CITY           SKY/WX    TMP DP  RH WIND       PRES   REMARKS
STURGEON BAY   MOCLDY    68  64  88 S15G21    29.75F
MANITOWOC      CLOUDY    67  66  97 S5        29.76F
SHEBOYGAN      MOCLDY    67  65  93 SW7       29.77F FOG
$$

LMZ563-521-522-541>543-011000-
LAKESHORE

STATION/POSITION TIME  TEMP    WIND        PRES    VSBY  WAVE
                       AIR SEA DIR/SP/G                  HT/PER
                 (UTC) (F)     (DEG/KT/KT) (MB)    (MI)  (FT/S)
SHEBOYGAN LKSHOR 0900   69 55  190/ 14/ 15 1008.0F
KEWAUNEE LKSHORE 0900   63     180/ 11/ 13 1007.0R
NORTHPORT PIER   0900   67     150/  8/ 15 1007.1F
N MID LAKE BUOY  0900   68 65  180/ 16/ 17 1007.1F
S GREEN BAY BUOY 0900   71     VRB 16/ 17  1007.5F
CHAMBERS ISLAND  0900   71     150/  5/ 12 1006.8F
MENOMINEE LKSHOR 0900   70     170/ 10/ 15 1007.1F
$$


USA.gov is the U.S. government's official web portal to all federal, state and local government web resources and services.